Manistique, MI

10:46 AM EST on December 13, 2017 (GMT -0500)
Schoolcraft County

Weather History for KISQ - December, 2013

Change the Weather History Date:

Tuesday, December 3, 2013

  Actual Average Record
Temperature  
Mean Temperature 22 °F -  
Max Temperature 24 °F 32 °F 50 °F (1982)
Min Temperature 20 °F 17 °F -8 °F (1976)
Degree Days  
Heating Degree Days 43    
Moisture  
Dew Point 19 °F    
Average Humidity 88    
Maximum Humidity 93    
Minimum Humidity 85    
Precipitation  
Precipitation 0.06 in - - ()
Sea Level Pressure  
Sea Level Pressure 29.93 in    
Wind  
Wind Speed 7 mph (NE)    
Max Wind Speed 10 mph    
Max Gust Speed 16 mph    
Visibility 8 miles    
Events Snow    
Averages and records for this station are not official NWS values.
T = Trace of Precipitation, MM = Missing Value Source: NWS Daily Summary

Daily Weather History Graph

Daily Weather History Graph

Search for Another Location

Airport or City:

Trip Planner

Search our weather history database for the weather conditions in past years. The results will help you decide how hot, cold, wet, or windy it might be!

Date:

Astronomy

Dec. 03, 2013 Rise Set
Actual Time 8:08 AM EST 5:00 PM EST
Civil Twilight 7:34 AM EST 5:34 PM EST
Nautical Twilight 6:57 AM EST 6:11 PM EST
Astronomical Twilight 6:21 AM EST 6:47 PM EST
Moon 8:35 AM EST (12/3) 6:04 PM EST (12/3)
Length of Visible Light 9h 59m
Length of Day
8h 51m
New Moon, 1% of the Moon is Illuminated
Dec 3
New Moon
Dec 9
First Quarter
Dec 17
Full
Dec 25
Last Quarter
Jan 1
New

Hourly Weather History & Observations

Time (EST) Temp. Windchill Dew Point Humidity Pressure Visibility Wind Dir Wind Speed Gust Speed Precip Events Conditions
12:15 AM 23.0 °F 15.8 °F 20.3 °F 89% 29.93 in 10.0 mi NE 5.8 mph - N/A   Overcast
12:34 AM 22.3 °F 13.9 °F 19.8 °F 90% 29.93 in 10.0 mi ENE 6.9 mph - N/A   Scattered Clouds
12:54 AM 23.0 °F 13.9 °F 20.3 °F 89% 29.93 in 10.0 mi ENE 8.1 mph - N/A   Clear
1:15 AM 23.9 °F 15.8 °F 21.2 °F 89% 29.92 in 10.0 mi ENE 6.9 mph - N/A   Clear
1:34 AM 23.5 °F 14.5 °F 20.8 °F 89% 29.92 in 10.0 mi ENE 8.1 mph - N/A   Clear
1:55 AM 23.5 °F 16.4 °F 21.2 °F 91% 29.92 in 10.0 mi ENE 5.8 mph - N/A   Mostly Cloudy
2:15 AM 23.0 °F 14.7 °F 20.3 °F 89% 29.92 in 10.0 mi ENE 6.9 mph - N/A   Mostly Cloudy
2:34 AM 22.3 °F 13.9 °F 20.1 °F 91% 29.92 in 10.0 mi ENE 6.9 mph - N/A   Scattered Clouds
2:55 AM 22.1 °F 13.7 °F 19.9 °F 91% 29.93 in 10.0 mi ENE 6.9 mph - N/A   Clear
3:15 AM 21.6 °F 12.1 °F 19.4 °F 91% 29.92 in 10.0 mi NE 8.1 mph - N/A   Scattered Clouds
3:34 AM 21.2 °F 12.6 °F 19.2 °F 92% 29.93 in 10.0 mi NE 6.9 mph - N/A   Clear
3:55 AM 20.8 °F 12.1 °F 18.5 °F 91% 29.93 in 10.0 mi NE 6.9 mph - N/A   Clear
4:14 AM 20.3 °F 10.6 °F 18.1 °F 91% 29.92 in 10.0 mi NE 8.1 mph - N/A   Scattered Clouds
4:34 AM 20.1 °F 11.3 °F 17.4 °F 89% 29.92 in 10.0 mi NE 6.9 mph - N/A   Clear
4:55 AM 20.1 °F 10.3 °F 17.4 °F 89% 29.92 in 10.0 mi ENE 8.1 mph - N/A   Scattered Clouds
5:14 AM 20.3 °F 10.6 °F 17.6 °F 89% 29.91 in 10.0 mi NE 8.1 mph - N/A   Overcast
5:35 AM 20.3 °F 9.8 °F 17.6 °F 89% 29.92 in 10.0 mi ENE 9.2 mph - N/A   Overcast
5:55 AM 20.3 °F 10.6 °F 17.6 °F 89% 29.92 in 10.0 mi ENE 8.1 mph - N/A   Scattered Clouds
6:14 AM 20.1 °F 11.3 °F 17.4 °F 89% 29.93 in 10.0 mi ENE 6.9 mph - N/A   Mostly Cloudy
6:35 AM 20.3 °F 10.6 °F 17.4 °F 89% 29.93 in 10.0 mi ENE 8.1 mph - N/A   Mostly Cloudy
6:54 AM 20.3 °F 10.6 °F 17.2 °F 88% 29.93 in 10.0 mi ENE 8.1 mph - N/A   Mostly Cloudy
7:15 AM 20.3 °F 9.8 °F 16.7 °F 86% 29.93 in 10.0 mi NE 9.2 mph - N/A   Overcast
7:35 AM 20.3 °F 9.8 °F 16.7 °F 86% 29.94 in 10.0 mi NE 9.2 mph - N/A   Overcast
7:54 AM 20.8 °F 12.1 °F 17.6 °F 87% 29.94 in 10.0 mi NE 6.9 mph - N/A   Overcast
8:15 AM 20.8 °F 13.2 °F 17.4 °F 87% 29.94 in 10.0 mi NE 5.8 mph - N/A   Overcast
8:35 AM 20.3 °F 10.6 °F 16.9 °F 87% 29.95 in 10.0 mi NE 8.1 mph - N/A   Overcast
8:54 AM 20.1 °F 11.3 °F 16.5 °F 86% 29.95 in 10.0 mi NE 6.9 mph - N/A   Overcast
9:15 AM 20.1 °F 12.3 °F 16.5 °F 86% 29.96 in 10.0 mi NNE 5.8 mph - N/A   Overcast
9:34 AM 20.3 °F 11.5 °F 16.7 °F 86% 29.96 in 10.0 mi NE 6.9 mph - N/A   Overcast
9:55 AM 20.3 °F 12.5 °F 16.7 °F 86% 29.96 in 3.0 mi NE 5.8 mph - N/A Snow Light Snow
10:15 AM 20.7 °F 13.0 °F 17.4 °F 87% 29.97 in 2.5 mi NE 5.8 mph - N/A Snow Light Snow
10:34 AM 21.0 °F 14.6 °F 18.0 °F 88% 29.97 in 2.5 mi NE 4.6 mph - N/A Snow Light Snow
10:55 AM 21.6 °F 15.3 °F 18.5 °F 88% 29.98 in 2.0 mi NNE 4.6 mph - N/A Snow Light Snow
11:15 AM 22.1 °F 14.7 °F 19.2 °F 89% 29.97 in 2.0 mi NNE 5.8 mph - N/A Snow Light Snow
11:34 AM 22.8 °F 14.5 °F 19.9 °F 89% 29.97 in 1.0 mi NE 6.9 mph - N/A Snow Light Snow
11:55 AM 23.0 °F 14.7 °F 19.9 °F 88% 29.96 in 2.0 mi NE 6.9 mph - N/A Snow Light Snow
12:14 PM 23.0 °F 13.9 °F 20.1 °F 89% 29.96 in 3.0 mi NE 8.1 mph - N/A Snow Light Snow
12:34 PM - - - N/A% - - North - - N/A   Unknown
12:55 PM 23.7 °F 16.6 °F 20.3 °F 87% 29.96 in 10.0 mi NE 5.8 mph - 0.06 in   Overcast
1:14 PM 23.7 °F 16.6 °F 20.3 °F 87% 29.96 in 10.0 mi NE 5.8 mph - N/A   Overcast
1:35 PM 23.7 °F 15.6 °F 20.3 °F 87% 29.95 in 10.0 mi NNE 6.9 mph - N/A   Overcast
1:55 PM 23.5 °F 14.5 °F 20.1 °F 87% 29.94 in 10.0 mi NNE 8.1 mph - N/A Snow Light Snow
2:14 PM 23.5 °F 15.4 °F 20.1 °F 87% 29.93 in 4.0 mi NNE 6.9 mph - N/A Snow Light Snow
2:35 PM 23.4 °F 16.2 °F 19.6 °F 85% 29.94 in 7.0 mi NE 5.8 mph - N/A Snow Light Snow
2:55 PM 23.5 °F 15.4 °F 19.9 °F 86% 29.93 in 10.0 mi NNE 6.9 mph - N/A   Overcast
3:14 PM 23.5 °F 14.5 °F 19.9 °F 86% 29.93 in 10.0 mi NNE 8.1 mph - N/A Snow Light Snow
3:35 PM 23.4 °F 15.2 °F 19.8 °F 86% 29.93 in 10.0 mi NE 6.9 mph - N/A Snow Light Snow
3:54 PM 23.0 °F 14.7 °F 19.6 °F 87% 29.93 in 10.0 mi NNE 6.9 mph - N/A   Overcast
4:14 PM 23.0 °F 12.4 °F 19.6 °F 87% 29.92 in 10.0 mi NNE 10.4 mph - N/A   Overcast
4:35 PM 23.0 °F 12.4 °F 19.4 °F 86% 29.93 in 10.0 mi NNE 10.4 mph - N/A   Overcast
4:54 PM 22.6 °F 12.6 °F 19.4 °F 87% 29.93 in 5.0 mi NNE 9.2 mph - N/A Snow Light Snow
5:15 PM 22.6 °F 14.3 °F 19.4 °F 87% 29.93 in 10.0 mi NNE 6.9 mph - N/A Snow Light Snow
5:35 PM 22.6 °F 13.4 °F 19.4 °F 87% 29.93 in 10.0 mi NNE 8.1 mph - N/A   Overcast
5:54 PM 22.6 °F 14.3 °F 19.4 °F 87% 29.93 in 10.0 mi NE 6.9 mph - N/A   Overcast
6:15 PM 22.6 °F 13.4 °F 19.4 °F 87% 29.93 in 10.0 mi NE 8.1 mph - N/A   Overcast
6:35 PM 22.8 °F 13.6 °F 19.8 °F 88% 29.93 in 10.0 mi NE 8.1 mph - N/A   Overcast
6:54 PM 23.0 °F 13.9 °F 19.9 °F 88% 29.93 in 10.0 mi NE 8.1 mph - N/A   Overcast
7:15 PM 23.0 °F 14.7 °F 19.9 °F 88% 29.93 in 10.0 mi NE 6.9 mph - N/A   Overcast
7:34 PM 23.0 °F 14.7 °F 20.1 °F 89% 29.93 in 10.0 mi NE 6.9 mph - N/A   Overcast
7:54 PM 23.4 °F 13.5 °F 20.3 °F 88% 29.93 in 10.0 mi NE 9.2 mph - N/A   Overcast
8:15 PM 23.2 °F 15.0 °F 20.1 °F 88% 29.94 in 10.0 mi NE 6.9 mph - N/A   Overcast
8:34 PM 23.4 °F 12.8 °F 20.3 °F 88% 29.93 in 7.0 mi NE 10.4 mph - N/A Snow Light Snow
8:55 PM 23.5 °F 14.5 °F 20.3 °F 87% 29.93 in 3.0 mi NE 8.1 mph - N/A Snow Light Snow
9:15 PM 23.5 °F 13.7 °F 20.8 °F 89% 29.91 in 3.0 mi NE 9.2 mph 16.1 mph N/A Snow Light Snow
9:34 PM 23.5 °F 13.0 °F 21.0 °F 90% 29.91 in 4.0 mi NE 10.4 mph 16.1 mph N/A Snow Light Snow
9:55 PM 23.7 °F 14.0 °F 21.2 °F 90% 29.91 in 2.5 mi NE 9.2 mph - N/A Snow Light Snow
10:15 PM 23.7 °F 14.7 °F 21.2 °F 90% 29.91 in 5.0 mi NE 8.1 mph - N/A Snow Light Snow
10:34 PM 23.9 °F 14.2 °F 21.7 °F 91% 29.92 in 10.0 mi NE 9.2 mph - N/A   Overcast
10:55 PM 24.3 °F 15.4 °F 21.9 °F 91% 29.92 in 7.0 mi NE 8.1 mph - N/A   Overcast
11:14 PM 24.6 °F 15.1 °F 22.1 °F 90% 29.92 in 4.0 mi NE 9.2 mph - N/A Snow Light Snow
11:34 PM 24.6 °F 15.1 °F 22.5 °F 91% 29.92 in 2.0 mi NE 9.2 mph - N/A Snow Light Snow
11:55 PM 24.6 °F 15.1 °F 22.8 °F 93% 29.92 in 1.5 mi NE 9.2 mph - N/A Snow Light Snow